Weather History for KROC - August, 2013

Change the Weather History Date:

Monday, August 19, 2013

  Actual Average Record
Temperature  
Mean Temperature 71 °F 69 °F  
Max Temperature 82 °F 79 °F 94 °F (1936)
Min Temperature 59 °F 59 °F 46 °F (1977)
Degree Days  
Heating Degree Days 0 1  
Month to date heating degree days 9 9  
Since 1 June heating degree days 75 89  
Since 1 July heating degree days 17 21  
Cooling Degree Days 6 5  
Month to date cooling degree days 61 106  
Year to date cooling degree days 500 435  
Since 1 June cooling degree days 429 405  
Growing Degree Days 20 (Base 50)    
Moisture  
Dew Point 60 °F    
Average Humidity 69    
Maximum Humidity 93    
Minimum Humidity 45    
Precipitation  
Precipitation 0.00 in 0.10 in 1.75 in (1880)
Month to date precipitation 1.96 2.22  
Year to date precipitation 24.47 21.35  
Snow  
Snow 0.00 in 0.00 in 0.00 in ()
Month to date snowfall 0.0 0.0  
Since 1 June snowfall 0.0 0.0  
Since 1 July snowfall 0.0 0.0  
Snow Depth 0.00 in    
Sea Level Pressure  
Sea Level Pressure 30.09 in    
Wind  
Wind Speed 6 mph (WSW)    
Max Wind Speed 10 mph    
Max Gust Speed 15 mph    
Visibility 10 miles    
Events      
T = Trace of Precipitation, MM = Missing Value Source: NWS Daily Summary

Daily Weather History Graph

Daily Weather History Graph

Search for Another Location

Airport or City:

Trip Planner

Search our weather history database for the weather conditions in past years. The results will help you decide how hot, cold, wet, or windy it might be!

Date:

Astronomy

Aug. 19, 2013 Rise Set
Actual Time 6:21 AM EDT 8:06 PM EDT
Civil Twilight 5:50 AM EDT 8:36 PM EDT
Nautical Twilight 5:13 AM EDT 9:13 PM EDT
Astronomical Twilight 4:33 AM EDT 9:53 PM EDT
Moon 6:56 PM EDT (8/19) 4:36 AM EDT (8/19)
Length of Visible Light 14h 46m
Length of Day
13h 45m
Waxing Gibbous, 97% of the Moon is Illuminated
Aug 19
Waxing Gibbous
Aug 20
Full
Aug 28
Last Quarter
Sep 5
New
Sep 12
First Quarter

Hourly Weather History & Observations

Time (EDT) Temp. Heat Index Dew Point Humidity Pressure Visibility Wind Dir Wind Speed Gust Speed Precip Events Conditions
12:54 AM 63.0 °F - 61.0 °F 93% 30.13 in 10.0 mi SW 5.8 mph - N/A   Mostly Cloudy
1:54 AM 64.0 °F - 60.1 °F 87% 30.13 in 10.0 mi SW 6.9 mph - N/A   Overcast
2:54 AM 62.1 °F - 59.0 °F 90% 30.12 in 10.0 mi SW 4.6 mph - N/A   Mostly Cloudy
3:54 AM 61.0 °F - 57.9 °F 90% 30.12 in 10.0 mi SW 5.8 mph - N/A   Scattered Clouds
4:54 AM 60.1 °F - 57.9 °F 93% 30.12 in 10.0 mi SW 5.8 mph - N/A   Mostly Cloudy
5:54 AM 60.1 °F - 57.0 °F 90% 30.13 in 10.0 mi SW 4.6 mph - N/A   Scattered Clouds
6:54 AM 60.1 °F - 57.9 °F 93% 30.12 in 7.0 mi SW 3.5 mph - N/A   Scattered Clouds
7:54 AM 64.0 °F - 60.1 °F 87% 30.12 in 10.0 mi SW 5.8 mph - N/A   Partly Cloudy
8:54 AM 68.0 °F - 61.0 °F 78% 30.12 in 10.0 mi SW 6.9 mph - N/A   Partly Cloudy
9:54 AM 72.0 °F - 63.0 °F 73% 30.11 in 10.0 mi SW 9.2 mph - N/A   Partly Cloudy
10:54 AM 75.9 °F - 63.0 °F 64% 30.10 in 10.0 mi SW 6.9 mph - N/A   Partly Cloudy
11:54 AM 78.1 °F - 62.1 °F 58% 30.09 in 10.0 mi SSW 3.5 mph - N/A   Scattered Clouds
12:54 PM 79.0 °F - 59.0 °F 50% 30.08 in 10.0 mi West 4.6 mph - N/A   Mostly Cloudy
1:54 PM 81.0 °F 81.0 °F 57.0 °F 44% 30.07 in 10.0 mi WNW 6.9 mph - N/A   Mostly Cloudy
2:54 PM 81.0 °F 82.2 °F 63.0 °F 54% 30.06 in 10.0 mi North 4.6 mph - N/A   Mostly Cloudy
3:54 PM 81.0 °F 82.2 °F 63.0 °F 54% 30.06 in 10.0 mi North 5.8 mph - N/A   Scattered Clouds
4:54 PM 79.0 °F - 61.0 °F 54% 30.05 in 10.0 mi WNW 9.2 mph - N/A   Mostly Cloudy
5:54 PM 80.1 °F 80.7 °F 59.0 °F 48% 30.04 in 10.0 mi WNW 8.1 mph - N/A   Partly Cloudy
6:54 PM 79.0 °F - 57.9 °F 48% 30.04 in 10.0 mi West 8.1 mph - N/A   Partly Cloudy
7:54 PM 75.9 °F - 59.0 °F 56% 30.04 in 10.0 mi WSW 3.5 mph - N/A   Partly Cloudy
8:54 PM 69.1 °F - 61.0 °F 75% 30.05 in 10.0 mi SW 3.5 mph - N/A   Clear
9:54 PM 68.0 °F - 61.0 °F 78% 30.06 in 10.0 mi West 5.8 mph - N/A   Clear
10:54 PM 66.0 °F - 60.1 °F 81% 30.06 in 10.0 mi WSW 5.8 mph - N/A   Clear
11:54 PM 64.9 °F - 59.0 °F 81% 30.06 in 10.0 mi SSW 4.6 mph - N/A   Clear